Startseite
Über Mich
AHP4
Galerie
Sehschlangen
Tourenbuch
Bookmarks
Elektronik
Bewertung
Geschichten
[Tagesmessung] [Jahreswerte] [Information]

Messwerte vom 05.03.2022

Die letzten Messwerte von 23:58:47 Uhr:
KategorieMesswert
Temperatur [°C]1
Luftdruck [mBar]1009
Sonneneinstrahlung0
Wind [km/h]0 aus Nordost
Niederschlag [l/m²]0
rel.Luftfeucht.78.6%
CO2 [ppm]571

Diagramme
Messwerte vom 05.03.2022
Tagesaggregation
KategorieMinimumMaximumSchnittSumme
Temperatur [°C]-4101.6021
Luftdruck [mBar]100610101008.1688
Sonneneinstrahlung24594.3979
Wind [km/h]0
rF [%]51.494.875.56
Niederschlag [l/m²]0
CO2 [ppm]401711510.4
Einordnung alsFrosttag
Vegetationstag

Messungen an benachbarten Tagen: Zur Jahresaggregation 2022
Tabelle aller Messwerte
UhrzeitTemperatur [°C]Luftdruck [mBar]SonneWind [km/h]RichtungRegen [l/m²]rF [%]CO2 [ppm]
00:01:48 0 1008 0 0 SO 0 81.5 703
00:04:46 0 1008 0 0 N 0 81.7 711
00:07:45 0 1008 0 0 N 0 81.8 700
00:10:52 0 1008 0 0 N 0 81.8 699
00:13:48 0 1008 0 0 O 0 81.9 680
00:16:48 0 1008 0 0 N 0 82 680
00:19:46 0 1008 0 0 N 0 82.2 679
00:22:47 0 1009 0 0 N 0 82.4 685
00:25:47 0 1008 0 0 NO 0 82.3 685
00:28:49 0 1008 0 0 NO 0 82.2 681
00:31:47 0 1008 0 0 O 0 82 676
00:34:47 0 1008 0 0 O 0 81.8 673
00:37:46 0 1008 0 0 N 0 81.6 680
00:40:47 0 1008 0 0 N 0 81.4 671
00:43:46 0 1008 0 0 N 0 81.4 674
00:46:46 0 1008 0 0 N 0 81.3 669
00:49:47 0 1008 0 0 N 0 81.1 670
00:52:47 0 1007 0 0 NO 0 81.1 679
00:55:46 0 1007 0 0 N 0 81.2 679
00:58:46 0 1007 0 0 W 0 81.4 673
01:01:49 0 1008 0 0 W 0 81.8 665
01:04:47 0 1008 0 0 W 0 82 665
01:07:47 0 1008 0 0 W 0 81.7 666
01:10:47 0 1008 0 0 W 0 81.4 674
01:13:45 0 1008 0 0 W 0 81.3 679
01:16:46 0 1008 0 0 W 0 81.4 674
01:19:47 0 1008 0 0 W 0 81.5 663
01:22:48 0 1008 0 0 W 0 81.9 659
01:25:46 0 1008 0 0 O 0 81.6 664
01:28:47 0 1007 0 0 SO 0 81.5 661
01:31:45 0 1008 0 0 NO 0 81.5 664
01:34:47 0 1007 0 0 NO 0 81.6 667
01:37:46 0 1007 0 0 S 0 81.5 667
01:40:50 0 1008 0 0 N 0 81.6 658
01:43:46 0 1009 0 0 N 0 81.6 658
01:46:46 0 1008 0 0 O 0 81.2 656
01:49:47 1 1008 0 0 NO 0 77.9 656
01:52:46 1 1009 0 0 SO 0 77.6 653
01:55:47 1 1008 0 0 SO 0 77.4 650
01:58:46 1 1008 0 0 SO 0 77.4 648
02:01:47 0 1008 0 0 N 0 77.5 644
02:04:46 0 1008 0 0 N 0 77.7 641
02:07:46 0 1008 0 0 N 0 78.2 638
02:10:46 0 1009 0 0 N 0 78.3 644
02:13:46 0 1007 0 0 N 0 78.2 647
02:16:46 0 1007 0 0 O 0 78 648
02:19:48 0 1008 0 0 SO 0 78.2 644
02:22:49 0 1008 0 0 SO 0 78.6 642
02:25:49 0 1008 0 0 NO 0 78.9 639
02:28:48 0 1008 0 0 NO 0 79 638
02:31:49 0 1008 0 0 NO 0 79.2 647
02:34:47 0 1008 0 0 NO 0 79.4 648
02:37:49 0 1007 0 0 NO 0 79.5 644
02:40:49 0 1007 0 0 NO 0 79.6 638
02:43:47 0 1008 0 0 SO 0 79.8 641
02:46:45 0 1008 0 0 NO 0 79.8 641
02:49:47 0 1008 0 0 W 0 79.6 638
02:52:47 0 1008 0 0 NO 0 79.6 635
02:55:47 0 1008 0 0 NO 0 79.8 642
02:58:46 0 1007 0 0 NO 0 79.5 636
03:01:47 0 1007 0 0 NO 0 79.6 637
03:04:46 0 1008 0 0 SO 0 79.3 641
03:07:49 0 1008 0 0 SO 0 78.9 636
03:10:47 0 1008 0 0 SO 0 78.7 625
03:13:47 0 1007 0 0 SO 0 78.7 639
03:16:47 0 1007 0 0 N 0 79.4 647
03:19:46 0 1008 0 0 N 0 79.6 651
03:22:46 0 1007 0 0 NO 0 80.4 637
03:25:45 1 1008 0 0 O 0 79.9 635
03:28:50 1 1008 0 0 NO 0 79.2 628
03:31:47 1 1008 0 0 O 0 79.1 629
03:34:46 0 1007 0 0 O 0 79.1 626
03:37:48 0 1007 0 0 S 0 79 626
03:40:48 0 1008 0 0 SO 0 79 621
03:43:48 0 1007 0 0 NW 0 79.3 629
03:46:47 0 1007 0 0 NO 0 79.7 630
03:49:47 0 1008 0 0 NO 0 79.9 627
03:52:49 -1 1008 0 0 NO 0 80.2 620
03:55:48 -1 1008 0 0 NO 0 80.4 625
03:58:46 -1 1006 0 0 NO 0 81.7 630
04:01:48 -1 1007 0 0 NO 0 83.1 633
04:04:46 -1 1007 0 0 NO 0 83.1 626
04:07:48 -1 1007 0 0 NO 0 83.3 623
04:10:48 -1 1008 0 0 NO 0 83.3 621
04:13:47 -1 1007 0 0 NO 0 83.4 618
04:16:49 -1 1007 0 0 NO 0 83.6 618
04:19:47 -1 1007 0 0 NO 0 83.7 616
04:22:50 -2 1008 0 0 NO 0 83.8 616
04:25:46 -2 1008 0 0 NO 0 84.1 615
04:28:47 -2 1007 0 0 NO 0 84.1 609
04:31:49 -2 1007 0 0 NO 0 84.3 610
04:34:47 -2 1007 0 0 NO 0 84.4 611
04:37:49 -2 1008 0 0 NO 0 84.9 597
04:40:46 -2 1008 0 0 NO 0 85.3 603
04:43:49 -2 1008 0 0 NO 0 85.9 607
04:46:49 -2 1007 0 0 NO 0 86 609
04:49:47 -2 1007 0 0 NO 0 86.2 607
04:52:47 -2 1008 0 0 N 0 87.4 605
04:55:48 -2 1008 0 0 N 0 87.8 609
04:58:47 -2 1007 0 0 N 0 87.8 609
05:01:47 -2 1008 0 0 N 0 87.9 604
05:04:46 -2 1008 0 0 N 0 88 595
05:07:47 -2 1007 0 0 N 0 88.3 593
05:10:48 -2 1008 0 0 S 0 88.7 586
05:13:45 -2 1009 0 0 S 0 88.4 594
05:16:46 -2 1008 0 0 S 0 88.1 598
05:19:47 -2 1008 0 0 S 0 88 600
05:22:48 -2 1008 0 0 S 0 88 600
05:25:47 -2 1008 0 0 S 0 88.2 591
05:28:47 -2 1008 0 0 S 0 88.3 592
05:31:48 -3 1008 0 0 S 0 88.4 591
05:34:48 -3 1008 0 0 S 0 88.9 595
05:37:47 -3 1008 0 0 S 0 89.2 594
05:40:49 -3 1008 0 0 S 0 89.5 594
05:43:46 -3 1008 0 0 S 0 89.6 586
05:46:47 -3 1009 0 0 S 0 89.9 591
05:49:46 -3 1009 0 0 S 0 90 583
05:52:46 -3 1008 0 0 S 0 90.1 589
05:55:47 -3 1008 0 0 S 0 90.3 588
05:58:47 -3 1009 0 0 S 0 90.4 592
06:01:47 -3 1009 0 0 S 0 90.5 588
06:04:47 -3 1008 0 0 S 0 90.8 588
06:07:50 -3 1008 0 0 S 0 90.8 588
06:10:48 -3 1008 0 0 S 0 90.8 579
06:13:46 -3 1008 0 0 S 0 90.7 578
06:16:45 -4 1009 0 0 S 0 90.7 577
06:19:46 -4 1008 0 0 S 0 90.8 588
06:22:47 -4 1008 0 0 S 0 90.9 592
06:25:49 -4 1008 0 0 S 0 90.9 586
06:28:45 -4 1008 0 0 S 0 91.1 584
06:31:49 -4 1008 4 0 S 0 91.3 579
06:34:47 -4 1008 7 0 S 0 91.3 576
06:37:46 -4 1009 12 0 S 0 91.4 583
06:40:47 -4 1009 20 0 S 0 91.8 587
06:43:51 -4 1008 29 0 S 0 92 588
06:46:47 -4 1008 40 0 S 0 92.1 583
06:49:49 -4 1009 53 0 SO 0 92.7 583
06:52:49 -4 1009 67 0 SO 0 92.9 580
06:55:48 -4 1008 80 0 N 0 92.8 582
06:58:48 -4 1009 92 0 NO 0 93 582
07:01:48 -4 1008 104 0 NO 0 93.5 580
07:04:48 -3 1009 113 0 NO 0 93.4 585
07:07:52 -4 1008 122 0 NO 0 93.6 600
07:10:49 -4 1009 130 0 NO 0 93.5 608
07:13:47 -4 1009 137 0 NO 0 93.4 606
07:16:46 -4 1009 143 0 SO 0 93.7 597
07:19:47 -4 1008 149 0 SO 0 93.7 591
07:22:49 -4 1009 153 0 SO 0 93.7 592
07:25:47 -4 1009 157 0 W 0 93.7 595
07:28:48 -4 1009 160 0 NO 0 93.9 589
07:31:50 -4 1008 163 0 NO 0 94 585
07:34:49 -4 1009 166 0 NO 0 94 586
07:37:48 -4 1009 168 0 NO 0 94 597
07:40:49 -4 1009 170 0 NO 0 93.9 600
07:43:49 -4 1009 172 0 NO 0 93.8 609
07:46:47 -4 1009 174 0 NO 0 93.8 617
07:49:50 -3 1008 175 0 NO 0 93.9 626
07:52:49 -3 1009 176 0 NO 0 94.3 630
07:55:49 -3 1009 177 0 NO 0 94.2 628
07:58:49 -3 1009 178 0 NO 0 94.3 623
08:01:50 -3 1009 179 0 NO 0 94.6 620
08:04:51 -3 1009 180 0 NO 0 94.6 626
08:07:48 -3 1009 181 0 NO 0 94.7 624
08:10:49 -3 1009 182 0 NO 0 94.8 624
08:13:48 -3 1009 183 0 NO 0 94.6 615
08:16:50 -3 1009 183 0 NO 0 94.5 612
08:19:48 -2 1009 184 0 NO 0 94.4 610
08:22:50 -2 1009 184 0 NO 0 94.6 594
08:25:50 -2 1009 185 0 NO 0 94.6 590
08:28:48 -2 1009 185 0 NO 0 94.5 588
08:31:49 -2 1009 186 0 NO 0 94.3 578
08:34:49 -2 1008 186 0 NO 0 94.3 580
08:37:48 -2 1009 186 0 NO 0 94.2 577
08:40:48 -2 1010 187 0 N 0 94.2 569
08:43:48 -2 1009 187 0 NO 0 94.4 562
08:46:48 -2 1009 187 0 NO 0 94.6 559
08:49:49 -1 1009 188 0 O 0 94.5 556
08:52:48 -1 1009 188 0 0 94.4 550
08:55:49 -1 1009 188 0 NO 0 94.5 548
08:58:48 -1 1009 189 0 SO 0 94.3 547
09:01:48 -1 1010 189 0 NW 0 94.2 536
09:04:50 0 1010 189 0 NO 0 93.6 533
09:07:51 0 1009 189 0 NW 0 93.1 524
09:10:48 0 1010 190 0 SO 0 92.7 515
09:13:50 0 1009 190 0 W 0 92.6 509
09:16:47 0 1009 190 0 S 0 92.4 504
09:19:49 0 1009 191 0 NO 0 91.8 504
09:22:48 0 1010 191 0 NO 0 91.6 506
09:25:48 0 1009 191 0 SW 0 91.1 498
09:28:49 1 1009 191 0 NO 0 90.9 491
09:31:46 1 1010 191 0 NO 0 90.5 492
09:34:50 1 1009 192 0 SO 0 90.1 486
09:37:51 1 1010 192 0 SO 0 89.8 482
09:40:48 1 1009 192 0 N 0 89.4 471
09:43:51 1 1010 192 0 O 0 89.2 466
09:46:47 1 1009 193 0 N 0 89.1 463
09:49:48 1 1009 193 0 O 0 88.7 457
09:52:48 1 1010 193 0 S 0 88.4 454
09:55:49 1 1009 195 0 NO 0 88.2 445
09:58:50 1 1009 195 0 N 0 87.6 445
10:01:50 1 1010 196 0 NO 0 86.8 437
10:04:47 2 1009 197 0 S 0 86.4 439
10:07:48 2 1009 198 0 SO 0 86.3 436
10:10:47 2 1010 200 0 S 0 85.8 439
10:13:48 2 1009 201 0 SO 0 84.8 433
10:16:49 2 1009 204 0 O 0 84.2 428
10:19:48 2 1009 203 0 O 0 83 425
10:22:47 2 1009 204 0 SO 0 82.4 418
10:25:48 3 1010 204 0 S 0 81.9 413
10:28:48 3 1009 206 0 S 0 81.6 413
10:31:47 3 1010 206 0 SO 0 81.9 407
10:34:48 3 1009 205 0 N 0 81.2 412
10:37:49 3 1009 207 0 O 0 80.4 413
10:40:49 3 1009 201 0 SW 0 79.7 410
10:43:47 3 1010 209 0 N 0 79.3 411
10:46:47 3 1009 211 0 SO 0 78.9 406
10:49:49 4 1009 210 0 SO 0 78.3 404
10:52:47 4 1009 214 0 SO 0 78.1 406
10:55:46 4 1009 217 0 S 0 77.4 407
10:58:48 4 1009 219 0 NO 0 76 404
11:01:47 5 1009 221 0 SO 0 75.2 404
11:04:50 5 1009 222 0 SW 0 73.7 406
11:07:50 5 1009 221 0 SO 0 73.2 405
11:10:45 5 1009 221 0 S 0 71.5 404
11:13:47 5 1009 219 0 NO 0 70.5 406
11:16:47 5 1009 217 0 SO 0 70.5 407
11:19:47 5 1009 218 0 O 0 71 404
11:22:48 5 1009 223 0 NO 0 71.2 407
11:25:45 5 1009 224 0 O 0 70 404
11:28:49 5 1008 222 0 SO 0 69.3 406
11:31:48 5 1009 218 0 SO 0 69.2 404
11:34:47 5 1009 215 0 S 0 69.4 407
11:37:49 5 1009 220 0 S 0 68.4 407
11:40:50 5 1009 223 0 SW 0 68.7 404
11:43:47 6 1010 223 0 S 0 70 407
11:46:48 6 1009 221 0 SO 0 67.5 403
11:49:47 6 1009 220 0 O 0 67 404
11:52:48 7 1008 220 0 S 0 66.5 403
11:55:51 8 1009 218 0 SW 0 62.2 407
11:58:46 8 1009 217 0 NO 0 62.2 404
12:01:46 7 1009 219 0 S 0 61.1 406
12:04:46 6 1009 219 0 S 0 62 403
12:07:48 6 1009 216 0 O 0 62.9 407
12:10:46 6 1009 218 0 O 0 63.9 406
12:13:51 6 1009 222 0 SO 0 64.9 407
12:16:49 6 1009 221 0 SW 0 62.5 403
12:19:49 7 1009 223 0 O 0 62.6 406
12:22:47 7 1009 219 0 O 0 62.6 407
12:25:48 7 1009 221 0 NO 0 61 404
12:28:49 7 1009 226 0 S 0 60.4 404
12:31:47 8 1009 228 0 S 0 60.2 404
12:34:48 9 1009 229 0 N 0 54.3 407
12:37:49 9 1009 225 0 SW 0 51.6 403
12:40:48 9 1009 224 0 NW 0 51.4 404
12:43:47 8 1009 223 0 O 0 54.6 407
12:46:47 8 1009 224 0 SO 0 54.9 404
12:49:46 7 1009 226 0 N 0 55.1 407
12:52:47 7 1009 227 0 O 0 56.3 407
12:55:48 7 1008 224 0 SO 0 57.1 406
12:58:49 7 1008 224 0 SW 0 57.2 404
13:01:49 7 1008 224 0 SO 0 56.9 406
13:04:49 7 1008 222 0 S 0 56.9 404
13:07:47 7 1008 221 0 NO 0 57.4 405
13:10:48 7 1009 219 0 NO 0 57.6 404
13:13:46 7 1008 218 0 O 0 57.8 407
13:16:48 7 1009 218 0 S 0 58.4 401
13:19:49 7 1009 220 0 SW 0 58 407
13:22:47 7 1009 222 0 O 0 58.2 404
13:25:47 7 1009 222 0 S 0 57.5 406
13:28:48 7 1008 218 0 N 0 55.9 404
13:31:47 6 1008 215 0 O 0 56.8 407
13:34:47 6 1008 213 0 SO 0 57.8 404
13:37:49 7 1008 212 0 S 0 58 404
13:40:47 7 1009 210 0 NW 0 56.8 403
13:43:49 7 1009 210 0 NO 0 57.5 404
13:46:46 6 1008 210 0 S 0 58.5 404
13:49:49 6 1008 210 0 NO 0 58 407
13:52:47 6 1008 210 0 O 0 58.4 407
13:55:47 6 1008 210 0 O 0 58.8 404
13:58:48 6 1008 210 0 NW 0 58.7 404
14:01:51 6 1009 209 0 SO 0 58.9 407
14:04:46 6 1007 211 0 O 0 59.4 404
14:07:46 6 1008 216 0 O 0 59.7 407
14:10:49 6 1008 221 0 SO 0 60 404
14:13:48 6 1008 223 0 O 0 59.6 404
14:16:46 6 1007 225 0 N 0 59.1 404
14:19:49 6 1009 226 0 S 0 59.2 407
14:22:47 6 1008 227 0 SO 0 59.1 406
14:25:48 6 1008 227 0 SO 0 59.5 404
14:28:48 6 1008 233 0 S 0 59.4 407
14:31:47 7 1007 245 0 S 0 60 407
14:34:47 8 1008 245 0 SO 0 60.5 407
14:37:49 9 1008 239 0 SW 0 56.5 407
14:40:46 10 1009 242 0 O 0 54.4 406
14:43:47 9 1008 234 0 S 0 53.2 404
14:46:46 9 1007 230 0 N 0 52.3 407
14:49:48 8 1008 230 0 SO 0 52.4 407
14:52:49 8 1008 226 0 SW 0 53 404
14:55:48 8 1007 220 0 S 0 53.2 407
14:58:46 7 1008 217 0 O 0 53.4 406
15:01:48 6 1008 215 0 NO 0 54.3 404
15:04:48 6 1008 215 0 0 55.1 405
15:07:49 6 1007 214 0 SO 0 55.7 404
15:10:50 6 1008 212 0 S 0 56.8 407
15:13:47 6 1008 213 0 S 0 56.9 407
15:16:47 5 1008 214 0 O 0 57.6 407
15:19:48 5 1008 213 0 O 0 58 407
15:22:47 5 1009 211 0 O 0 58.4 405
15:25:49 5 1009 210 0 NO 0 58.7 404
15:28:48 5 1007 208 0 O 0 58.9 405
15:31:49 5 1007 210 0 N 0 59 404
15:34:50 5 1007 214 0 NO 0 59.8 404
15:37:47 5 1007 219 0 N 0 59.4 407
15:40:48 5 1008 221 0 N 0 59.1 407
15:43:48 5 1007 235 0 NO 0 59.8 401
15:46:47 5 1008 232 0 O 0 60 407
15:49:47 5 1008 225 0 N 0 59.1 404
15:52:46 5 1006 222 0 N 0 57.7 404
15:55:47 5 1007 220 0 O 0 57.4 407
15:58:47 5 1007 218 0 N 0 57.9 407
16:01:49 5 1007 214 0 NO 0 58.1 407
16:04:49 5 1008 212 0 NO 0 58.2 407
16:07:48 5 1008 209 0 NO 0 58.3 407
16:10:48 5 1007 205 0 NO 0 57.3 404
16:13:45 5 1006 199 0 N 0 57.4 407
16:16:47 5 1007 200 0 O 0 57.8 407
16:19:50 5 1008 205 0 O 0 57.8 406
16:22:47 5 1008 204 0 N 0 57.8 404
16:25:50 5 1007 202 0 O 0 58.4 407
16:28:47 5 1008 196 0 O 0 58 404
16:31:48 5 1008 197 0 NO 0 57.8 405
16:34:48 5 1006 209 0 NO 0 58.8 407
16:37:48 5 1007 207 0 S 0 57 404
16:40:48 5 1007 207 0 NO 0 57 407
16:43:48 5 1007 207 0 NO 0 56.6 404
16:46:47 5 1007 216 0 NO 0 57.1 404
16:49:48 5 1007 212 0 NO 0 57.1 406
16:52:46 4 1007 215 0 NO 0 58.1 404
16:55:47 4 1007 215 0 NO 0 58 407
16:58:49 4 1007 211 0 NO 0 58.1 403
17:01:48 4 1006 206 0 NO 0 58.9 407
17:04:46 4 1007 200 0 NO 0 59 407
17:07:50 4 1006 193 0 NO 0 60.1 407
17:10:48 4 1007 191 0 NO 0 60.7 407
17:13:49 4 1007 192 0 NO 0 60.9 403
17:16:49 4 1007 195 0 NO 0 61.7 407
17:19:48 4 1007 196 0 NO 0 62.1 404
17:22:47 4 1007 196 0 N 0 62.1 404
17:25:49 4 1007 194 0 NO 0 62 407
17:28:47 4 1007 188 0 N 0 62.4 405
17:31:49 3 1007 183 0 O 0 62.8 404
17:34:46 3 1007 182 0 O 0 62.8 407
17:37:47 3 1007 180 0 O 0 62.5 407
17:40:46 3 1007 176 0 O 0 62.5 404
17:43:47 3 1006 168 0 S 0 62.6 405
17:46:49 3 1007 160 0 SO 0 63 404
17:49:48 3 1007 152 0 SO 0 63.6 404
17:52:48 3 1006 143 0 SO 0 64.2 404
17:55:48 3 1007 132 0 SO 0 64.6 407
17:58:48 3 1006 120 0 NW 0 65 404
18:01:48 2 1008 107 0 SO 0 65.5 407
18:04:47 2 1007 36 0 SO 0 65.6 407
18:07:48 2 1008 84 0 SO 0 65.7 408
18:10:50 2 1007 67 0 NO 0 66.1 407
18:13:48 2 1007 49 0 NO 0 66.3 404
18:16:47 2 1007 34 0 NO 0 66.9 404
18:19:47 2 1008 24 0 NO 0 67.2 407
18:22:47 2 1007 16 0 O 0 68.6 407
18:25:46 2 1008 9 0 N 0 69 407
18:28:44 2 1007 4 0 N 0 69.1 404
18:31:47 2 1008 0 0 N 0 69.4 402
18:34:45 2 1007 0 0 N 0 69.7 406
18:37:45 2 1007 0 0 N 0 70.2 404
18:40:46 1 1007 0 0 N 0 70.2 407
18:43:45 1 1007 0 0 N 0 70.4 404
18:46:44 1 1008 0 0 N 0 70.5 407
18:49:46 1 1007 0 0 N 0 71.1 408
18:52:45 1 1007 0 0 N 0 72.3 407
18:55:44 1 1008 0 0 N 0 72.3 404
18:58:45 1 1008 0 0 N 0 72 406
19:01:45 1 1008 0 0 N 0 72.2 406
19:04:45 1 1007 0 0 S 0 71.9 404
19:07:44 1 1007 0 0 O 0 71.8 404
19:10:45 1 1007 0 0 O 0 72.8 406
19:13:45 1 1008 0 0 S 0 72.7 407
19:16:46 1 1008 0 0 SO 0 72.7 404
19:19:46 1 1008 0 0 O 0 73.1 407
19:22:46 1 1007 0 0 N 0 73.4 403
19:25:48 1 1008 0 0 N 0 73.2 404
19:28:44 1 1007 0 0 N 0 73.2 407
19:31:46 1 1007 0 0 N 0 73.4 406
19:34:46 1 1008 0 0 SO 0 73.5 406
19:37:44 1 1007 0 0 N 0 73.6 407
19:40:46 1 1007 0 0 N 0 74.1 407
19:43:44 1 1008 0 0 N 0 73.9 409
19:46:45 1 1007 0 0 N 0 74.3 413
19:49:45 1 1007 0 0 N 0 73.8 413
19:52:44 1 1008 0 0 N 0 73.3 415
19:55:44 1 1008 0 0 N 0 73.2 416
19:58:47 1 1007 0 0 N 0 73.6 416
20:01:46 1 1007 0 0 N 0 73.6 430
20:04:46 1 1007 0 0 SO 0 73.9 435
20:07:46 1 1007 0 0 NW 0 73.9 439
20:10:44 1 1007 0 0 N 0 74.7 444
20:13:47 1 1008 0 0 N 0 75 447
20:16:48 1 1008 0 0 SO 0 74.9 468
20:19:45 1 1007 0 0 W 0 75.4 471
20:22:45 1 1008 0 0 S 0 75.6 471
20:25:44 1 1008 0 0 O 0 75.6 474
20:28:44 1 1007 0 0 O 0 75.6 474
20:31:45 1 1008 0 0 O 0 75.3 468
20:34:45 1 1007 0 0 O 0 75 466
20:37:46 1 1008 0 0 O 0 75 468
20:40:48 1 1008 0 0 O 0 75.3 470
20:43:45 1 1008 0 0 O 0 75.2 480
20:46:45 1 1008 0 0 O 0 75.2 482
20:49:46 1 1009 0 0 O 0 75.4 478
20:52:45 1 1008 0 0 O 0 75.9 480
20:55:47 1 1008 0 0 NW 0 76.5 483
20:58:47 1 1008 0 0 NW 0 77 483
21:01:47 1 1008 0 0 NO 0 76.9 489
21:04:46 1 1008 0 0 NO 0 76.8 486
21:07:46 1 1009 0 0 NO 0 76.4 492
21:10:49 1 1009 0 0 SO 0 75.8 498
21:13:46 1 1008 0 0 SO 0 75.6 497
21:16:47 1 1008 0 0 SO 0 75.6 504
21:19:47 1 1009 0 0 SO 0 75.9 512
21:22:46 1 1009 0 0 SO 0 76.2 512
21:25:47 1 1009 0 0 SO 0 76.3 507
21:28:48 1 1008 0 0 SO 0 76.2 503
21:31:46 1 1009 0 0 NO 0 76.1 509
21:34:45 1 1008 0 0 O 0 76.2 521
21:37:45 1 1008 0 0 O 0 76.8 518
21:40:45 1 1009 0 0 O 0 77.2 521
21:43:46 2 1009 0 0 O 0 76.8 524
21:46:46 2 1009 0 0 O 0 76.3 529
21:49:46 2 1008 0 0 O 0 76.3 530
21:52:43 2 1009 0 0 O 0 76.3 524
21:55:45 2 1008 0 0 O 0 76.6 518
21:58:44 2 1009 0 0 O 0 76.8 521
22:01:47 2 1008 0 0 O 0 76.3 524
22:04:45 2 1009 0 0 O 0 76.1 527
22:07:45 2 1009 0 0 O 0 76.1 530
22:10:48 2 1008 0 0 O 0 76 531
22:13:47 2 1009 0 0 O 0 75.6 532
22:16:46 2 1009 0 0 NO 0 75.1 541
22:19:49 2 1009 0 0 O 0 74.4 538
22:22:45 2 1009 0 0 N 0 74 539
22:25:49 2 1008 0 0 NO 0 74 545
22:28:47 2 1008 0 0 O 0 74.3 554
22:31:46 2 1009 0 0 O 0 74.3 554
22:34:46 2 1009 0 0 O 0 74.8 554
22:37:46 2 1009 0 0 O 0 75 552
22:40:46 2 1009 0 0 O 0 75 552
22:43:44 2 1009 0 0 O 0 75.1 550
22:46:48 2 1009 0 0 NO 0 75 556
22:49:46 2 1009 0 0 NO 0 75.2 564
22:52:46 2 1009 0 0 O 0 75.1 557
22:55:48 2 1009 0 0 O 0 75 569
22:58:46 2 1009 0 0 O 0 75 568
23:01:49 2 1009 0 0 NW 0 75.4 565
23:04:45 2 1010 0 0 O 0 75.6 560
23:07:46 2 1009 0 0 O 0 75.6 568
23:10:45 2 1009 0 0 NO 0 75.8 564
23:13:48 2 1009 0 0 NO 0 76.1 569
23:16:46 2 1009 0 0 N 0 76.5 569
23:19:47 2 1009 0 0 O 0 76.6 580
23:22:46 2 1009 0 0 O 0 76.7 579
23:25:46 2 1009 0 0 O 0 76.7 577
23:28:45 2 1009 0 0 O 0 76.7 579
23:31:46 2 1009 0 0 N 0 76.8 577
23:34:45 2 1009 0 0 N 0 76.8 574
23:37:47 2 1009 0 0 NO 0 76.9 580
23:40:44 1 1009 0 0 O 0 77.1 574
23:43:45 1 1009 0 0 O 0 77.4 574
23:46:43 1 1009 0 0 O 0 77.5 571
23:49:45 1 1009 0 0 O 0 78.2 573
23:52:45 1 1009 0 0 O 0 78.2 573
23:55:44 1 1009 0 0 SO 0 78.5 571
23:58:47 1 1009 0 0 NO 0 78.6 571

Letzte Änderung : 04-Jan-2022
Copyright Jens Köhler, Wolfsburg, Obere Dorfstraße 10d